[[{"header":{"parameterUnit":"m.s-1","parameterCategory":1,"la1":30.2991,"la2":30.254,"lo1":-89.0895,"lo2":-89.0444,"dy":0.0017,"dx":0.0017,"nx":28,"ny":28,"refTime":"2025-08-04T21:00:00:Z","depth":0,"parameterNumber":2,"parameterNumberName":"U-component_of_WINDS"},"data":[0,0,0,0,0,0,0,0,0,0,0,0,0,0,0,0,0,0,0,0,0,0,0,0,0,0,0,0,0,0,0,0,0,0,0,0,0,0,0,0,0,0,0,0,0,0,0,0,0,0,0,0,0,0,0,0,0,0,-3.2011,-3.201,0,-3.1965,-3.1964,-3.1964,-3.1855,-3.1852,-3.185,-3.1848,-3.1803,-3.1804,-3.1805,0,0,0,0,0,0,0,0,0,0,0,0,0,-3.2004,-3.2005,-3.2011,-3.201,-3.2009,-3.1965,-3.1964,-3.1964,-3.1855,-3.1852,-3.1849,-3.1847,-3.1803,-3.1804,-3.1805,0,0,0,0,0,0,0,0,0,0,0,0,0,-3.1988,-3.2005,-3.2011,-3.195,-3.1944,-3.1965,-3.1964,-3.1964,-3.1856,-3.1852,-3.1849,-3.1845,-3.1802,-3.1804,-3.1805,-3.1882,0,0,-3.1809,-3.181,0,0,0,0,0,0,0,0,-3.1989,-3.1988,-3.1959,-3.1954,-3.1947,-3.1912,-3.1945,-3.1936,-3.1856,-3.1889,-3.1848,-3.1844,-3.1842,-3.184,-3.1839,-3.188,-3.1878,-3.1809,-3.181,-3.1811,-3.1811,0,0,0,0,0,0,0,-3.199,-3.1989,-3.1993,-3.1959,-3.1952,-3.1925,-3.1919,-3.1943,-3.1886,-3.1886,-3.1878,-3.1874,-3.1838,-3.1838,-3.1837,-3.1878,-3.1809,-3.1811,-3.1811,-3.1812,-3.1978,-3.1981,0,0,0,0,0,0,-3.2,-3.1991,-3.1994,-3.1991,-3.196,-3.1928,-3.1921,-3.1927,-3.1885,-3.1875,-3.1877,-3.1869,-3.1837,-3.1836,-3.1835,-3.1921,-3.1811,-3.1812,-3.1813,-3.1974,-3.1978,-3.1982,0,0,0,0,0,0,-3.2,-3.2001,-3.1996,-3.1989,-3.1986,-3.1931,-3.1939,-3.1928,-3.1927,-3.1878,-3.1867,-3.1887,-3.1834,-3.1833,-3.1871,-3.1918,-3.1813,-3.1814,-3.197,-3.1975,-3.198,-3.2095,0,0,0,0,0,0,-3.2,-3.2002,-3.2031,-3.199,-3.1987,-3.2033,-3.1942,-3.1929,-3.193,-3.1919,-3.1885,-3.1876,-3.1832,-3.1869,-3.1872,-3.1918,-3.1815,-3.1965,-3.1972,-3.1979,-3.2087,-3.2103,-3.2118,0,0,0,0,0,-3.2,-3.2066,-3.2033,-3.2034,-3.2022,-3.2035,-3.2033,-3.1981,-3.1934,-3.1962,-3.193,-3.1877,-3.1913,-3.1874,-3.1876,-3.1923,-3.1962,-3.197,-3.1978,-3.208,-3.21,-3.2117,0,0,0,0,0,0,-3.2114,-3.2059,-3.2022,-3.2076,-3.2061,-3.2017,-3.2051,-3.2005,-3.2003,-3.1993,-3.1928,-3.1921,-3.1968,-3.1949,-3.1907,-3.1995,-3.1929,-3.1938,-3.2005,-3.2024,-3.2039,-3.2042,-3.1816,0,0,0,0,0,-3.2145,-3.2161,-3.2112,-3.2164,-3.2159,-3.2107,-3.2111,-3.2071,-3.2053,-3.2046,-3.2017,-3.2002,-3.2009,-3.2016,-3.202,-3.2084,-3.2074,-3.2117,-3.2133,-3.2146,-3.2154,-3.2184,-3.2202,-3.2009,-3.2008,-3.2008,0,0,-3.221,-3.2182,-3.2196,-3.2186,-3.217,-3.2187,-3.2102,-3.2124,-3.2136,-3.205,-3.2083,-3.2061,-3.204,-3.209,-3.2111,-3.2076,-3.2205,-3.2156,-3.2167,-3.2168,-3.2194,-3.2212,-3.2229,-3.2014,-3.2013,-3.2012,0,0,-3.2336,-3.2318,-3.2358,-3.2343,-3.2319,-3.2283,-3.2293,-3.2256,-3.2238,-3.227,-3.2205,-3.2218,-3.2233,-3.222,-3.2215,-3.2335,-3.2286,-3.2339,-3.242,-3.245,-3.2465,-3.2479,-3.252,-3.2535,-3.2347,-3.2348,-3.2348,0,-3.242,-3.2443,-3.2385,-3.241,-3.2407,-3.2329,-3.2369,-3.2358,-3.2337,-3.2337,-3.2299,-3.2314,-3.2295,-3.234,-3.2369,-3.2369,-3.2377,-3.2342,-3.2468,-3.2481,-3.2492,-3.253,-3.2546,-3.2354,-3.2353,-3.2353,-3.2352,0,-3.2546,-3.2563,-3.2598,-3.2578,-3.258,-3.2613,-3.256,-3.2568,-3.2528,-3.2497,-3.253,-3.2504,-3.25,-3.2508,-3.2471,-3.2548,-3.2527,-3.248,-3.2411,-3.2518,-3.2553,-3.2567,-3.2363,-3.2361,-3.2359,-3.2358,0,0,-3.2743,-3.2689,-3.2703,-3.2692,-3.2659,-3.2671,-3.27,-3.2696,-3.2704,-3.2692,-3.2714,-3.2728,-3.2683,-3.2678,-3.2638,-3.2665,-3.2759,-3.2613,-3.2612,-3.264,-3.284,-3.2875,-3.2893,-3.2726,-3.2729,-3.2731,-3.2841,0,-3.286,-3.2905,-3.2853,-3.291,-3.2924,-3.2849,-3.2874,-3.2857,-3.2829,-3.2836,-3.2805,-3.2814,-3.2756,-3.2752,-3.2775,-3.2743,-3.2798,-3.2734,-3.2745,-3.2746,-3.2751,-3.2911,-3.2949,-3.3054,-3.2855,-3.2857,-3.2859,0,-3.3002,-3.2995,-3.3053,-3.3015,-3.3019,-3.3042,-3.3033,-3.3042,-3.302,-3.2997,-3.2991,-3.2942,-3.2968,-3.2902,-3.2936,-3.2893,-3.2895,-3.288,-3.2882,-3.288,-3.2808,-3.2912,-3.3087,-3.3102,-3.288,-3.2878,-3.2877,0,-3.3137,-3.3143,-3.3177,-3.3171,-3.3128,-3.3146,-3.3129,-3.3103,-3.3104,-3.3096,-3.3095,-3.3092,-3.3089,-3.3087,-3.3039,-3.2996,-3.3078,-3.3009,-3.3059,-3.306,-3.3078,-3.3077,-3.3254,-3.3082,-3.3082,-3.3082,-3.3081,0,-3.3273,-3.331,-3.3237,-3.3258,-3.3298,-3.3238,-3.3279,-3.3255,-3.3233,-3.3248,-3.3184,-3.3199,-3.3135,-3.3143,-3.3106,-3.3138,-3.3138,-3.312,-3.3109,-3.3124,-3.3127,-3.3123,-3.3114,-3.3086,-3.3085,-3.3084,-3.3084,0,-3.343,-3.3383,-3.3415,-3.3371,-3.3361,-3.3392,-3.3354,-3.3371,-3.3338,-3.3358,-3.3359,-3.3308,-3.3314,-3.3265,-3.3263,-3.3238,-3.3287,-3.3265,-3.3294,-3.3287,-3.3338,-3.3334,-3.3518,-3.3538,-3.3356,-3.3358,-3.3359,0,-3.3518,-3.3545,-3.3504,-3.3508,-3.3494,-3.3503,-3.3502,-3.3445,-3.3447,-3.3423,-3.3443,-3.3444,-3.3442,-3.3456,-3.3418,-3.3416,-3.3391,-3.3456,-3.3391,-3.3405,-3.339,-3.3388,-3.339,-3.347,-3.3472,-3.3474,-3.3475,0,-3.368,-3.3655,-3.3656,-3.3649,-3.3649,-3.3641,-3.3629,-3.3637,-3.3574,-3.3579,-3.3584,-3.3582,-3.3579,-3.358,-3.357,-3.3553,-3.3503,-3.3496,-3.3507,-3.3522,-3.3538,-3.3528,-3.333,-3.3492,-3.349,-3.3489,-3.3488,-3.3487,-3.3804,-3.3823,-3.3796,-3.3799,-3.3784,-3.3773,-3.3787,-3.3755,-3.3758,-3.375,-3.3716,-3.3727,-3.3704,-3.3685,-3.3672,-3.3679,-3.3648,-3.3665,-3.3668,-3.3673,-3.3681,-3.3538,-3.3677,-3.3677,-3.3676,-3.3676,-3.3676,0,-3.396,-3.3939,-3.3942,-3.3926,-3.3928,-3.3881,-3.3865,-3.387,-3.388,-3.3862,-3.386,-3.3865,-3.3866,-3.3828,-3.3824,-3.3837,-3.3814,-3.3838,-3.3836,-3.3832,-3.3711,-3.37,-3.3856,-3.3856,-3.3856,-3.3856,-3.3856,-3.3856,-3.4041,-3.4071,-3.4043,-3.4064,-3.4043,-3.4052,-3.4047,-3.4036,-3.4021,-3.403,-3.4029,-3.4004,-3.3978,-3.3971,-3.397,-3.3958,-3.3959,-3.399,-3.3971,-3.3858,-3.3841,-3.3824,-3.3814,-3.3991,-3.3991,-3.4091,-3.4092,-3.4093]},{"header":{"parameterUnit":"m.s-1","parameterCategory":1,"la1":30.2991,"la2":30.254,"lo1":-89.0895,"lo2":-89.0444,"dy":0.0017,"dx":0.0017,"nx":28,"ny":28,"refTime":"2025-08-04T21:00:00:Z","depth":0,"parameterNumber":3,"parameterNumberName":"V-component_of_WINDS"},"data":[0,0,0,0,0,0,0,0,0,0,0,0,0,0,0,0,0,0,0,0,0,0,0,0,0,0,0,0,0,0,0,0,0,0,0,0,0,0,0,0,0,0,0,0,0,0,0,0,0,0,0,0,0,0,0,0,0,0,-1.1721,-1.1722,0,-1.1826,-1.1827,-1.1829,-1.1887,-1.1887,-1.1887,-1.1887,-1.1996,-1.1998,-1.2001,0,0,0,0,0,0,0,0,0,0,0,0,0,-1.1569,-1.1571,-1.1721,-1.1722,-1.1723,-1.1826,-1.1827,-1.1829,-1.1887,-1.1887,-1.1887,-1.1887,-1.1995,-1.1998,-1.2001,0,0,0,0,0,0,0,0,0,0,0,0,0,-1.1651,-1.1572,-1.172,-1.1765,-1.177,-1.1826,-1.1827,-1.1829,-1.1887,-1.1887,-1.1887,-1.1887,-1.1994,-1.1998,-1.2002,-1.2022,0,0,-1.2014,-1.2016,0,0,0,0,0,0,0,0,-1.1646,-1.1656,-1.1757,-1.1762,-1.1767,-1.1844,-1.1814,-1.1894,-1.1887,-1.1842,-1.1887,-1.1888,-1.1945,-1.1953,-1.1972,-1.2027,-1.2032,-1.2015,-1.2017,-1.2019,-1.202,0,0,0,0,0,0,0,-1.164,-1.1652,-1.1762,-1.1758,-1.1765,-1.1779,-1.1791,-1.1829,-1.1891,-1.1846,-1.1851,-1.1862,-1.1948,-1.1968,-1.1975,-1.2034,-1.2015,-1.2018,-1.2021,-1.2022,-1.2109,-1.2109,0,0,0,0,0,0,-1.1627,-1.1647,-1.1759,-1.1766,-1.1706,-1.1781,-1.1795,-1.1819,-1.1891,-1.1902,-1.1862,-1.1865,-1.1961,-1.197,-1.1979,-1.2007,-1.2019,-1.2023,-1.2025,-1.211,-1.2109,-1.2109,0,0,0,0,0,0,-1.1624,-1.1637,-1.1755,-1.1707,-1.1724,-1.1784,-1.181,-1.1821,-1.1841,-1.1903,-1.1914,-1.1871,-1.1962,-1.1974,-1.2011,-1.2012,-1.2025,-1.2028,-1.211,-1.211,-1.2109,-1.2064,0,0,0,0,0,0,-1.1619,-1.1635,-1.1644,-1.1707,-1.1726,-1.1785,-1.1811,-1.1823,-1.1848,-1.1853,-1.1915,-1.1925,-1.1963,-1.2004,-1.2015,-1.2018,-1.2032,-1.211,-1.211,-1.2109,-1.2065,-1.2062,-1.2059,0,0,0,0,0,-1.1614,-1.1627,-1.1644,-1.1657,-1.1738,-1.1785,-1.1795,-1.1838,-1.1848,-1.1857,-1.1896,-1.1923,-1.201,-1.2008,-1.202,-1.2024,-1.211,-1.211,-1.2109,-1.2067,-1.2062,-1.2059,0,0,0,0,0,0,-1.1563,-1.1636,-1.1656,-1.169,-1.1731,-1.1794,-1.1807,-1.1833,-1.1871,-1.1874,-1.1926,-1.1939,-1.1971,-1.2002,-1.1998,-1.2047,-1.2063,-1.2065,-1.2026,-1.2023,-1.2019,-1.2011,-1.2035,0,0,0,0,0,-1.1556,-1.1587,-1.165,-1.1674,-1.1693,-1.1746,-1.1768,-1.1798,-1.1842,-1.1859,-1.1902,-1.1943,-1.198,-1.2003,-1.204,-1.207,-1.2084,-1.2079,-1.2075,-1.2072,-1.2074,-1.209,-1.2089,-1.2108,-1.2108,-1.2108,0,0,-1.1541,-1.1585,-1.1602,-1.1665,-1.17,-1.1731,-1.1761,-1.1793,-1.1817,-1.1865,-1.1902,-1.1934,-1.1984,-1.2017,-1.2034,-1.2043,-1.2071,-1.2072,-1.2069,-1.2072,-1.209,-1.2088,-1.2086,-1.2108,-1.2108,-1.2108,0,0,-1.1531,-1.1567,-1.1591,-1.1625,-1.1677,-1.1712,-1.1717,-1.1777,-1.18,-1.1839,-1.1875,-1.1904,-1.1966,-1.2,-1.2025,-1.2025,-1.2051,-1.2036,-1.2019,-1.2035,-1.2034,-1.2033,-1.2032,-1.2031,-1.2037,-1.2037,-1.2037,0,-1.1506,-1.1555,-1.16,-1.163,-1.1656,-1.17,-1.1724,-1.1755,-1.1817,-1.1834,-1.1843,-1.1922,-1.1958,-1.1999,-1.1999,-1.2019,-1.2026,-1.2029,-1.203,-1.203,-1.2029,-1.2029,-1.2029,-1.2035,-1.2035,-1.2035,-1.2036,0,-1.1522,-1.1555,-1.1568,-1.1625,-1.1653,-1.168,-1.1729,-1.1751,-1.1778,-1.1811,-1.1849,-1.1895,-1.1941,-1.1954,-1.198,-1.1998,-1.2002,-1.202,-1.2037,-1.2024,-1.2025,-1.2026,-1.2032,-1.2032,-1.2033,-1.2034,0,0,-1.1483,-1.1564,-1.1568,-1.1594,-1.1654,-1.1681,-1.1709,-1.1754,-1.1772,-1.1813,-1.1837,-1.1888,-1.1905,-1.1934,-1.1965,-1.1978,-1.1975,-1.1995,-1.1997,-1.1989,-1.1996,-1.1982,-1.1981,-1.1992,-1.1992,-1.1992,-1.1992,0,-1.1481,-1.1534,-1.1574,-1.1612,-1.1642,-1.1684,-1.1709,-1.1748,-1.178,-1.181,-1.1846,-1.1881,-1.1901,-1.1918,-1.1934,-1.1972,-1.1977,-1.1972,-1.2015,-1.2016,-1.2001,-1.1982,-1.1967,-1.1964,-1.1992,-1.1992,-1.1993,0,-1.1485,-1.1523,-1.1564,-1.1619,-1.1634,-1.1655,-1.1699,-1.1728,-1.1773,-1.1795,-1.1826,-1.1858,-1.1889,-1.1902,-1.1946,-1.1942,-1.1962,-1.1983,-1.1984,-1.1989,-1.2003,-1.1986,-1.1964,-1.1963,-1.1994,-1.1994,-1.1993,0,-1.1452,-1.1514,-1.1545,-1.1566,-1.1632,-1.1646,-1.1674,-1.1719,-1.1743,-1.1782,-1.1798,-1.1839,-1.1862,-1.1893,-1.1935,-1.1941,-1.1974,-1.1991,-1.1993,-1.1992,-1.1998,-1.1997,-1.1978,-1.2011,-1.2011,-1.2011,-1.2011,0,-1.1445,-1.1468,-1.1531,-1.155,-1.1577,-1.1623,-1.1648,-1.168,-1.1719,-1.1745,-1.1784,-1.1807,-1.1861,-1.1891,-1.1924,-1.1954,-1.1965,-1.1983,-1.1991,-1.1979,-1.1977,-1.1993,-1.1994,-1.2011,-1.2011,-1.2011,-1.2011,0,-1.1412,-1.1456,-1.1493,-1.1552,-1.1567,-1.1584,-1.1634,-1.1654,-1.1688,-1.172,-1.173,-1.1783,-1.182,-1.1865,-1.1917,-1.1939,-1.1966,-1.1979,-1.195,-1.1955,-1.1954,-1.1953,-1.1944,-1.1945,-1.1978,-1.1977,-1.1977,0,-1.1405,-1.1423,-1.1483,-1.1503,-1.153,-1.1562,-1.1586,-1.1632,-1.1656,-1.1708,-1.1722,-1.1761,-1.1796,-1.1853,-1.1896,-1.1935,-1.1949,-1.1943,-1.1955,-1.1942,-1.1948,-1.1946,-1.1948,-1.194,-1.194,-1.1939,-1.1939,0,-1.1386,-1.1407,-1.144,-1.1481,-1.1509,-1.1543,-1.158,-1.1594,-1.1647,-1.1672,-1.171,-1.1736,-1.1788,-1.1827,-1.1872,-1.1901,-1.1928,-1.1934,-1.1937,-1.1924,-1.1907,-1.1916,-1.1941,-1.1935,-1.1935,-1.1935,-1.1936,-1.1936,-1.1366,-1.1384,-1.1428,-1.1464,-1.1496,-1.1528,-1.155,-1.1586,-1.1618,-1.1664,-1.1689,-1.1726,-1.177,-1.1832,-1.186,-1.1889,-1.1899,-1.1903,-1.1904,-1.1904,-1.19,-1.1902,-1.1898,-1.1898,-1.1898,-1.1898,-1.1899,0,-1.1349,-1.138,-1.1412,-1.1461,-1.1489,-1.1512,-1.1553,-1.1574,-1.1606,-1.1644,-1.1677,-1.172,-1.1757,-1.1803,-1.1843,-1.1858,-1.1871,-1.1867,-1.1866,-1.1872,-1.1889,-1.1883,-1.1855,-1.1855,-1.1855,-1.1855,-1.1855,-1.1855,-1.1344,-1.1374,-1.1399,-1.1446,-1.1477,-1.1513,-1.1534,-1.1564,-1.1594,-1.164,-1.1671,-1.1701,-1.1741,-1.1785,-1.182,-1.1832,-1.1845,-1.1836,-1.1852,-1.1867,-1.1871,-1.1875,-1.1869,-1.1839,-1.1839,-1.1833,-1.1833,-1.1833]}]]